| time (UTC) | temp C | wind direction | speed KPH | gust KPH | rain 1hr cm | rain 24hr cm | rain mn cm | humidity % | barometer mb |
| 20260503190803 | 10 | 193 | 19.3 | 30.6 | 0.00 | 0.00 | 0.00 | 72 | 1012.7 |
| 20260503190003 | 10 | 194 | 20.9 | 37.0 | 0.00 | 0.00 | 0.00 | 72 | 1012.8 |
| 20260503185817 | 10 | 195 | 19.3 | 37.0 | 0.00 | 0.00 | 0.00 | 72 | 1012.9 |
| 20260503185016 | 10 | 200 | 16.1 | 35.4 | 0.00 | 0.00 | 0.00 | 72 | 1012.9 |
| 20260503184003 | 10 | 203 | 17.7 | 35.4 | 0.00 | 0.00 | 0.00 | 70 | 1013.3 |
| 20260503183203 | 11 | 202 | 16.1 | 33.8 | 0.00 | 0.00 | 0.00 | 67 | 1013.4 |
| 20260503182403 | 11 | 204 | 16.1 | 32.2 | 0.00 | 0.00 | 0.00 | 61 | 1013.3 |
| 20260503181816 | 12 | 205 | 16.1 | 35.4 | 0.00 | 0.00 | 0.00 | 58 | 1013.4 |
| 20260503181014 | 12 | 207 | 14.5 | 29.0 | 0.00 | 0.00 | 0.00 | 57 | 1013.2 |
| 20260503180213 | 12 | 212 | 9.7 | 22.5 | 0.00 | 0.00 | 0.00 | 54 | 1013.3 |
| 20260503175603 | 13 | 216 | 8.0 | 24.1 | 0.00 | 0.00 | 0.00 | 52 | 1013.0 |
| 20260503175016 | 13 | 209 | 9.7 | 24.1 | 0.00 | 0.00 | 0.00 | 53 | 1013.2 |
| 20260503174215 | 13 | 205 | 12.9 | 30.6 | 0.00 | 0.00 | 0.00 | 51 | 1013.0 |
| 20260503173203 | 13 | 204 | 14.5 | 32.2 | 0.00 | 0.00 | 0.00 | 51 | 1013.0 |
| 20260503172612 | 13 | 206 | 11.3 | 32.2 | 0.00 | 0.00 | 0.00 | 48 | 1013.0 |
| 20260503171816 | 14 | 205 | 14.5 | 30.6 | 0.00 | 0.00 | 0.00 | 48 | 1013.0 |
| 20260503171015 | 14 | 207 | 12.9 | 30.6 | 0.00 | 0.00 | 0.00 | 46 | 1013.3 |
| 20260503160214 | 13 | 201 | 22.5 | 38.6 | 0.00 | 0.00 | 0.00 | 48 | 1013.9 |
| 20260503150803 | 12 | 200 | 19.3 | 38.6 | 0.00 | 0.00 | 0.00 | 51 | 1014.5 |
| 20260503140216 | 10 | 204 | 12.9 | 20.9 | 0.00 | 0.00 | 0.00 | 54 | 1015.1 |
| 20260503130803 | 8 | 200 | 11.3 | 17.7 | 0.00 | 0.00 | 0.00 | 60 | 1015.2 |
| 20260503120217 | 5 | 201 | 9.7 | 16.1 | 0.00 | 0.00 | 0.00 | 66 | 1015.2 |
| 20260503110212 | 3 | 198 | 6.4 | 9.7 | 0.00 | 0.00 | 0.00 | 71 | 1015.2 |
| 20260503100213 | 3 | 198 | 6.4 | 8.0 | 0.00 | 0.00 | 0.00 | 72 | 1015.2 |
| 20260503090214 | 3 | 198 | 6.4 | 8.0 | 0.00 | 0.00 | 0.00 | 70 | 1015.3 |
| 20260503081603 | 4 | 195 | 6.4 | 8.0 | 0.00 | 0.00 | 0.00 | 68 | 1015.4 |
| 20260503081016 | 4 | 194 | 6.4 | 11.3 | 0.00 | 0.00 | 0.00 | 69 | 1015.4 |
| 20260503072614 | 4 | 198 | 6.4 | 9.7 | 0.00 | 0.00 | 0.00 | 66 | 1015.5 |
| 20260503071603 | 4 | 195 | 6.4 | 11.3 | 0.00 | 0.00 | 0.00 | 66 | 1015.7 |
| 20260503071016 | 5 | 190 | 6.4 | 11.3 | 0.00 | 0.00 | 0.00 | 65 | 1015.8 |
| 20260503054803 | 5 | 183 | 6.4 | 9.7 | 0.00 | 0.00 | 0.00 | 62 | 1016.4 |
| 20260503054003 | 5 | 176 | 6.4 | 9.7 | 0.00 | 0.00 | 0.00 | 61 | 1016.4 |
| 20260503053416 | 5 | 177 | 6.4 | 12.9 | 0.00 | 0.00 | 0.00 | 61 | 1016.4 |
| 20260503052403 | 5 | 173 | 4.8 | 9.7 | 0.00 | 0.00 | 0.00 | 61 | 1016.4 |
| 20260503051814 | 5 | 175 | 6.4 | 11.3 | 0.00 | 0.00 | 0.00 | 60 | 1016.5 |
| 20260503051012 | 5 | 180 | 6.4 | 11.3 | 0.00 | 0.00 | 0.00 | 60 | 1016.6 |
| 20260503050216 | 6 | 175 | 6.4 | 9.7 | 0.00 | 0.00 | 0.00 | 58 | 1016.7 |
| 20260503045816 | 5 | 172 | 6.4 | 9.7 | 0.00 | 0.00 | 0.00 | 58 | 1016.7 |
| 20260503045014 | 5 | 171 | 6.4 | 9.7 | 0.00 | 0.00 | 0.00 | 59 | 1016.8 |
| 20260503044213 | 5 | 163 | 6.4 | 9.7 | 0.00 | 0.00 | 0.00 | 58 | 1016.8 |
| 20260503043203 | 5 | 158 | 4.8 | 6.4 | 0.00 | 0.00 | 0.00 | 57 | 1016.9 |
| 20260503042616 | 6 | 159 | 4.8 | 8.0 | 0.00 | 0.00 | 0.00 | 57 | 1016.8 |
| 20260503041814 | 6 | 161 | 6.4 | 8.0 | 0.00 | 0.00 | 0.00 | 57 | 1016.9 |
| 20260503041013 | 6 | 159 | 4.8 | 8.0 | 0.00 | 0.00 | 0.00 | 57 | 1016.9 |
| 20260503040007 | 6 | 165 | 4.8 | 8.0 | 0.00 | 0.00 | 0.00 | 57 | 1017.0 |
| 20260503035816 | 6 | 164 | 4.8 | 8.0 | 0.00 | 0.00 | 0.00 | 57 | 1017.0 |
| 20260503034803 | 6 | 160 | 6.4 | 8.0 | 0.00 | 0.00 | 0.00 | 57 | 1017.0 |
| 20260503034003 | 6 | 163 | 4.8 | 6.4 | 0.00 | 0.00 | 0.00 | 56 | 1017.0 |
| 20260503033203 | 6 | 163 | 3.2 | 6.4 | 0.00 | 0.00 | 0.00 | 55 | 1017.0 |
| 20260503032616 | 6 | 156 | 3.2 | 6.4 | 0.00 | 0.00 | 0.00 | 55 | 1017.1 |
| 20260503031815 | 6 | 144 | 3.2 | 6.4 | 0.00 | 0.00 | 0.00 | 55 | 1017.1 |
| 20260503031014 | 6 | 144 | 3.2 | 6.4 | 0.00 | 0.00 | 0.00 | 55 | 1017.2 |
| 20260503030212 | 6 | 143 | 1.6 | 6.4 | 0.00 | 0.00 | 0.00 | 54 | 1017.3 |
| 20260503025817 | 6 | 141 | 0.0 | 6.4 | 0.00 | 0.00 | 0.00 | 54 | 1017.3 |
| 20260503025016 | 6 | 0 | 0.0 | 0.0 | 0.00 | 0.00 | 0.00 | 55 | 1017.4 |
| 20260503024214 | 6 | 0 | 0.0 | 0.0 | 0.00 | 0.00 | 0.00 | 57 | 1017.5 |
| 20260503023203 | 5 | 0 | 0.0 | 0.0 | 0.00 | 0.00 | 0.00 | 64 | 1017.5 |
| 20260503022617 | 5 | 0 | 0.0 | 0.0 | 0.00 | 0.00 | 0.00 | 63 | 1017.4 |
| 20260503021816 | 5 | 0 | 0.0 | 0.0 | 0.00 | 0.00 | 0.00 | 65 | 1017.4 |
| 20260503021014 | 6 | 0 | 0.0 | 0.0 | 0.00 | 0.00 | 0.00 | 65 | 1017.4 |
| 20260503020213 | 6 | 0 | 0.0 | 0.0 | 0.00 | 0.00 | 0.00 | 65 | 1017.3 |
| 20260503015812 | 6 | 0 | 0.0 | 0.0 | 0.00 | 0.00 | 0.00 | 62 | 1017.3 |
| 20260503014803 | 6 | 0 | 0.0 | 0.0 | 0.00 | 0.00 | 0.00 | 64 | 1017.2 |
| 20260503014003 | 6 | 0 | 0.0 | 0.0 | 0.00 | 0.00 | 0.00 | 64 | 1017.2 |
| 20260503013414 | 6 | 0 | 0.0 | 0.0 | 0.00 | 0.00 | 0.00 | 60 | 1017.2 |
| 20260503012403 | 7 | 0 | 0.0 | 0.0 | 0.00 | 0.00 | 0.00 | 55 | 1017.1 |
| 20260503011816 | 7 | 0 | 0.0 | 0.0 | 0.00 | 0.00 | 0.00 | 53 | 1017.1 |
| 20260503011015 | 7 | 0 | 0.0 | 0.0 | 0.00 | 0.00 | 0.00 | 53 | 1017.1 |
| 20260503010214 | 7 | 0 | 0.0 | 0.0 | 0.00 | 0.00 | 0.00 | 52 | 1017.2 |
| 20260503005813 | 8 | 0 | 0.0 | 0.0 | 0.00 | 0.00 | 0.00 | 51 | 1017.2 |
| 20260503004803 | 8 | 0 | 0.0 | 0.0 | 0.00 | 0.00 | 0.00 | 47 | 1017.2 |
| 20260503004003 | 8 | 0 | 0.0 | 0.0 | 0.00 | 0.00 | 0.00 | 46 | 1017.2 |
| 20260503003414 | 8 | 0 | 0.0 | 0.0 | 0.00 | 0.00 | 0.00 | 47 | 1017.3 |
| 20260503002403 | 9 | 0 | 0.0 | 0.0 | 0.00 | 0.00 | 0.00 | 44 | 1017.3 |
| 20260503001817 | 9 | 0 | 0.0 | 0.0 | 0.00 | 0.00 | 0.00 | 42 | 1017.4 |
| 20260503000803 | 10 | 26 | 0.0 | 3.2 | 0.00 | 0.00 | 0.00 | 39 | 1017.4 |
| 20260503000214 | 10 | 1 | 1.6 | 4.8 | 0.00 | 0.00 | 0.00 | 41 | 1017.5 |
| 20260502235814 | 10 | 349 | 1.6 | 4.8 | 0.00 | 0.00 | 0.00 | 40 | 1017.4 |
| 20260502235012 | 10 | 347 | 3.2 | 6.4 | 0.00 | 0.00 | 0.00 | 39 | 1017.6 |
| 20260502234003 | 10 | 2 | 4.8 | 8.0 | 0.00 | 0.00 | 0.00 | 41 | 1017.6 |
| 20260502233415 | 10 | 1 | 4.8 | 8.0 | 0.00 | 0.00 | 0.00 | 39 | 1017.6 |
| 20260502232403 | 10 | 343 | 3.2 | 6.4 | 0.00 | 0.00 | 0.00 | 37 | 1017.6 |
| 20260502231812 | 10 | 353 | 3.2 | 9.7 | 0.00 | 0.00 | 0.00 | 37 | 1017.7 |
| 20260502230803 | 11 | 354 | 3.2 | 8.0 | 0.00 | 0.00 | 0.00 | 39 | 1017.7 |
| 20260502230216 | 11 | 355 | 1.6 | 6.4 | 0.00 | 0.00 | 0.00 | 37 | 1017.7 |
| 20260502225814 | 10 | 1 | 3.2 | 9.7 | 0.00 | 0.00 | 0.00 | 39 | 1017.7 |
| 20260502224803 | 10 | 360 | 6.4 | 11.3 | 0.00 | 0.00 | 0.00 | 41 | 1017.8 |
| 20260502224217 | 10 | 351 | 4.8 | 9.7 | 0.00 | 0.00 | 0.00 | 41 | 1017.7 |
| 20260502223203 | 10 | 360 | 8.0 | 16.1 | 0.00 | 0.00 | 0.00 | 40 | 1017.9 |
| 20260502222403 | 10 | 354 | 6.4 | 16.1 | 0.00 | 0.00 | 0.00 | 37 | 1017.8 |
| 20260502221813 | 10 | 353 | 6.4 | 11.3 | 0.00 | 0.00 | 0.00 | 40 | 1018.0 |
| 20260502220803 | 10 | 3 | 8.0 | 16.1 | 0.00 | 0.00 | 0.00 | 43 | 1018.0 |
| 20260502220216 | 10 | 5 | 8.0 | 16.1 | 0.00 | 0.00 | 0.00 | 38 | 1017.9 |
| 20260502215815 | 10 | 360 | 9.7 | 14.5 | 0.00 | 0.00 | 0.00 | 38 | 1018.0 |
| 20260502215014 | 10 | 4 | 11.3 | 16.1 | 0.00 | 0.00 | 0.00 | 38 | 1018.0 |
| 20260502214212 | 10 | 2 | 9.7 | 17.7 | 0.00 | 0.00 | 0.00 | 41 | 1018.0 |
| 20260502213416 | 10 | 6 | 11.3 | 17.7 | 0.00 | 0.00 | 0.00 | 41 | 1018.0 |
| 20260502212403 | 10 | 1 | 9.7 | 16.1 | 0.00 | 0.00 | 0.00 | 41 | 1018.1 |
| 20260502211814 | 10 | 357 | 9.7 | 19.3 | 0.00 | 0.00 | 0.00 | 41 | 1018.1 |
| 20260502211012 | 10 | 360 | 11.3 | 19.3 | 0.00 | 0.00 | 0.00 | 43 | 1018.1 |
| 20260502210003 | 11 | 358 | 11.3 | 19.3 | 0.00 | 0.00 | 0.00 | 41 | 1018.2 |
| 20260502205603 | 11 | 1 | 11.3 | 19.3 | 0.00 | 0.00 | 0.00 | 37 | 1018.2 |
| 20260502204803 | 11 | 2 | 9.7 | 20.9 | 0.00 | 0.00 | 0.00 | 41 | 1018.2 |
| 20260502204213 | 11 | 358 | 8.0 | 19.3 | 0.00 | 0.00 | 0.00 | 41 | 1018.2 |
| 20260502203203 | 11 | 353 | 9.7 | 17.7 | 0.00 | 0.00 | 0.00 | 37 | 1018.4 |
| 20260502202616 | 11 | 356 | 9.7 | 17.7 | 0.00 | 0.00 | 0.00 | 39 | 1018.4 |
| 20260502201603 | 10 | 338 | 6.4 | 12.9 | 0.00 | 0.00 | 0.00 | 40 | 1018.7 |
| 20260502200803 | 10 | 334 | 6.4 | 17.7 | 0.00 | 0.00 | 0.00 | 38 | 1018.8 |
| 20260502200003 | 10 | 352 | 8.0 | 11.3 | 0.00 | 0.00 | 0.00 | 38 | 1018.8 |
| 20260502195603 | 10 | 353 | 9.7 | 16.1 | 0.00 | 0.00 | 0.00 | 39 | 1018.9 |
| 20260502195015 | 10 | 357 | 11.3 | 17.7 | 0.00 | 0.00 | 0.00 | 38 | 1019.1 |
| 20260502194214 | 10 | 357 | 9.7 | 16.1 | 0.00 | 0.00 | 0.00 | 38 | 1019.2 |
| 20260502193412 | 10 | 351 | 9.7 | 19.3 | 0.00 | 0.00 | 0.00 | 40 | 1019.3 |
| 20260502192616 | 10 | 360 | 11.3 | 24.1 | 0.00 | 0.00 | 0.00 | 38 | 1019.4 |
| 20260502191815 | 10 | 356 | 11.3 | 24.1 | 0.00 | 0.00 | 0.00 | 38 | 1019.6 |